Regional Weather Roundup
Issued by NWS

Home | Current Version | Previous Version | Text Only | Print | Product List | Glossary On
Versions: 1 2 3 4 5 6 7 8 9 10 11 12 13 14 15 16 17 18 19 20 21 22 23 24 25 26 27 28 29 30 31 32 33 34 35 36 37 38 39 40 41 42 43 44 45 46 47 48 49 50
000
ASUS43 KLSX 071959
RWRMO

WEATHER SUMMARY FOR MISSOURI
NATIONAL WEATHER SERVICE SPRINGFIELD MO
300 PM CDT TUE JUL 07 2015

NOTE: "FAIR" INDICATES FEW OR NO CLOUDS BELOW 12,000 FEET WITH NO
       SIGNIFICANT WEATHER AND/OR OBSTRUCTIONS TO VISIBILITY.
       CURRENT SKY AND/OR WEATHER CONDITIONS ARE NOT AVAILABLE FOR
       CHILLICOTHE AND FARMINGTON.

MOZ001>031-035>038-043-044-053-054-072100-
...NORTHERN AND WESTERN MISSOURI...

CITY           SKY/WX    TMP DP  RH WIND       PRES   REMARKS
KANSAS CTY INT CLOUDY    71  59  65 NE15      30.06F
KANSAS C DTWN  PTSUNNY   75  60  59 NE15      30.04F
ST JOSEPH      PTSUNNY   73  57  57 NE10      30.07F
CHILLICOTHE      N/A     74  60  61 N6        30.07S
KIRKSVILLE     PTSUNNY   73  58  59 N13       30.06S HAZE

$$
MOZ066>068-077>081-088>096-101>105-072100-
...SOUTHWEST MISSOURI...

CITY           SKY/WX    TMP DP  RH WIND       PRES   REMARKS
SPRINGFIELD    LGT RAIN  68  67  96 N8        30.01S VSB 1/4
JOPLIN         CLOUDY    66  63  90 NE8       30.03S FOG

$$
MOZ032>034-039>042-045>050-055>058-069>072-072100-
...CENTRAL MISSOURI...

CITY           SKY/WX    TMP DP  RH WIND       PRES   REMARKS
COLUMBIA       CLOUDY    68  63  84 NE10      30.03S HAZE
JEFFERSON CITY CLOUDY    67  64  90 CALM      30.02S FOG
ROLLA          RAIN      67  66  97 N13       30.00R FOG
SEDALIA        CLOUDY    71  62  73 NE9       30.05R HAZE
OSAGE BEACH    CLOUDY    66  63  88 N6        30.02R

$$
MOZ051-052-059>065-072100-
...EAST CENTRAL MISSOURI...

CITY           SKY/WX    TMP DP  RH WIND       PRES   REMARKS
ST LOUIS INTL  CLOUDY    70  64  81 N9        30.00S
SPIRIT OF STL  CLOUDY    69  65  86 N9        30.00R
ST CHARLES     CLOUDY    70  65  84 N13       30.00R

$$
MOZ072>076-082>087-097>100-106>115-072100-
...SOUTH CENTRAL AND SOUTHEAST MISSOURI...

CITY           SKY/WX    TMP DP  RH WIND       PRES   REMARKS
CAPE GIRARDEAU LGT RAIN  75  72  90 SW8       29.98S
FARMINGTON     CLOUDY    75  73  94 S5        30.02S
POPLAR BLUFF   CLOUDY    77  74  90 NW9       29.97F
WEST PLAINS    LGT RAIN  72  68  87 SW10      30.03R

$$


USA.gov is the U.S. government's official web portal to all federal, state and local government web resources and services.